Plymouth, MA

5:09 AM EST on December 16, 2017 (GMT -0500)
Plymouth Municipal

Weather History for KPYM - January, 2014

Change the Weather History Date:

Saturday, January 11, 2014

  Actual Average Record
Temperature  
Mean Temperature 49 °F -  
Max Temperature 59 °F 35 °F 59 °F (2014)
Min Temperature 39 °F 16 °F -10 °F (1988)
Degree Days  
Heating Degree Days 16    
Moisture  
Dew Point 50 °F    
Average Humidity 90    
Maximum Humidity 96    
Minimum Humidity 84    
Precipitation  
Precipitation 1.08 in - - ()
Sea Level Pressure  
Sea Level Pressure 29.73 in    
Wind  
Wind Speed 9 mph (SSW)    
Max Wind Speed 28 mph    
Max Gust Speed 44 mph    
Visibility 6 miles    
Events Fog , Rain , Thunderstorm    
Averages and records for this station are not official NWS values.
T = Trace of Precipitation, MM = Missing Value Source: NWS Daily Summary

Daily Weather History Graph

Daily Weather History Graph

Search for Another Location

Airport or City:

Trip Planner

Search our weather history database for the weather conditions in past years. The results will help you decide how hot, cold, wet, or windy it might be!

Date:

Astronomy

Jan. 11, 2014 Rise Set
Actual Time 7:09 AM EST 4:32 PM EST
Civil Twilight 6:38 AM EST 5:03 PM EST
Nautical Twilight 6:04 AM EST 5:38 PM EST
Astronomical Twilight 5:30 AM EST 6:11 PM EST
Moon 1:15 PM EST (1/11) 3:10 AM EST (1/11)
Length of Visible Light 10h 24m
Length of Day
9h 22m
Waxing Gibbous, 83% of the Moon is Illuminated
Jan 11
Waxing Gibbous
Jan 15
Full
Jan 24
Last Quarter
Jan 30
New
Feb 6
First Quarter

Hourly Weather History & Observations

Time (EST) Temp. Windchill Dew Point Humidity Pressure Visibility Wind Dir Wind Speed Gust Speed Precip Events Conditions
12:29 AM 39.9 °F - 37.9 °F 93% 30.26 in 0.8 mi Calm Calm - 0.00 in Rain Light Rain
12:52 AM 41.0 °F 39.0 °F 39.0 °F 93% 30.26 in 0.5 mi South 3.5 mph - 0.01 in Fog , Rain Light Rain
1:41 AM 41.0 °F 39.0 °F 39.9 °F 96% 30.24 in 1.0 mi SSE 3.5 mph - 0.01 in   Overcast
1:52 AM 42.1 °F 40.2 °F 39.9 °F 92% 30.25 in 1.0 mi South 3.5 mph - 0.01 in   Overcast
2:01 AM 42.1 °F - 39.9 °F 92% 30.24 in 0.8 mi Calm Calm - N/A   Mist
2:52 AM 43.0 °F 40.3 °F 41.0 °F 93% 30.22 in 0.5 mi South 4.6 mph - 0.00 in Fog Fog
3:52 AM 44.1 °F 42.5 °F 42.1 °F 93% 30.18 in 0.8 mi South 3.5 mph - N/A   Overcast
4:02 AM 44.1 °F 40.8 °F 42.1 °F 93% 30.18 in 1.2 mi SSW 5.8 mph - N/A   Overcast
4:11 AM 45.0 °F 42.6 °F 43.0 °F 93% 30.17 in 3.0 mi South 4.6 mph - N/A   Overcast
4:45 AM 45.0 °F 41.8 °F 42.1 °F 90% 30.14 in 9.0 mi Variable 5.8 mph - N/A   Overcast
4:52 AM 45.0 °F 41.2 °F 43.0 °F 93% 30.14 in 10.0 mi South 6.9 mph - N/A   Overcast
5:52 AM 45.0 °F 41.8 °F 42.1 °F 90% 30.12 in 10.0 mi South 5.8 mph - 0.00 in Rain Light Rain
6:52 AM 46.9 °F - 44.1 °F 90% 30.08 in 10.0 mi South 6.9 mph - 0.00 in   Overcast
7:52 AM 48.0 °F - 45.0 °F 89% 30.04 in 10.0 mi Variable 5.8 mph - N/A   Overcast
8:50 AM 50.0 °F - 46.4 °F 87% 30.00 in 10.0 mi South 11.5 mph 19.6 mph N/A   Overcast
8:52 AM 50.0 °F - 46.9 °F 89% 30.00 in 10.0 mi South 12.7 mph 27.6 mph N/A   Overcast
9:02 AM 50.0 °F - 46.9 °F 89% 30.00 in 10.0 mi South 11.5 mph 19.6 mph N/A   Mostly Cloudy
9:09 AM 50.0 °F - 46.9 °F 89% 29.99 in 10.0 mi South 11.5 mph 24.2 mph N/A   Overcast
9:52 AM 52.0 °F - 48.9 °F 89% 29.96 in 10.0 mi South 9.2 mph 19.6 mph N/A   Overcast
10:52 AM 54.0 °F - 51.1 °F 90% 29.90 in 10.0 mi South 12.7 mph 21.9 mph N/A   Overcast
11:25 AM 55.9 °F - 51.1 °F 84% 29.86 in 10.0 mi South 12.7 mph 28.8 mph N/A   Overcast
11:52 AM 55.9 °F - 51.1 °F 84% 29.83 in 10.0 mi SSW 11.5 mph 25.3 mph N/A   Overcast
12:29 PM 55.9 °F - 51.1 °F 84% 29.79 in 10.0 mi SSW 11.5 mph 29.9 mph 0.00 in   Overcast
12:36 PM 55.9 °F - 51.1 °F 84% 29.78 in 10.0 mi SSW 18.4 mph 31.1 mph 0.00 in   Overcast
12:52 PM 55.9 °F - 52.0 °F 87% 29.78 in 10.0 mi SSW 16.1 mph 31.1 mph 0.00 in   Overcast
12:59 PM 55.9 °F - 52.0 °F 87% 29.76 in 10.0 mi SSW 18.4 mph 33.4 mph N/A   Overcast
1:52 PM 55.0 °F - 52.0 °F 89% 29.71 in 8.0 mi SSW 11.5 mph 23.0 mph 0.02 in   Overcast
2:17 PM 55.9 °F - 52.0 °F 87% 29.67 in 8.0 mi SSW 15.0 mph 29.9 mph 0.00 in Rain Light Rain
2:43 PM 55.9 °F - 53.1 °F 90% 29.66 in 10.0 mi South 13.8 mph 24.2 mph 0.00 in   Overcast
2:52 PM 55.9 °F - 53.1 °F 90% 29.65 in 10.0 mi South 19.6 mph 31.1 mph 0.00 in   Overcast
3:11 PM 55.9 °F - 53.1 °F 90% 29.62 in 4.0 mi South 11.5 mph 26.5 mph 0.02 in Rain Light Rain
3:22 PM 55.9 °F - 53.1 °F 90% 29.61 in 5.0 mi South 16.1 mph 28.8 mph 0.02 in Rain Light Rain
3:38 PM 55.9 °F - 53.1 °F 90% 29.59 in 2.5 mi South 12.7 mph 26.5 mph 0.04 in Rain Light Rain
3:52 PM 55.0 °F - 52.0 °F 89% 29.58 in 1.8 mi South 16.1 mph 28.8 mph 0.05 in Rain Light Rain
3:55 PM 55.0 °F - 52.0 °F 89% 29.58 in 2.0 mi SSW 13.8 mph 28.8 mph 0.00 in Rain Light Rain
4:05 PM 55.0 °F - 52.0 °F 89% 29.58 in 4.0 mi SSW 12.7 mph 31.1 mph 0.00 in Rain Light Rain
4:49 PM 57.2 °F - 55.4 °F 94% 29.54 in 1.8 mi SSW 19.6 mph 38.0 mph 0.02 in Rain Light Rain
4:52 PM 57.0 °F - 55.0 °F 93% 29.54 in 1.5 mi SSW 20.7 mph 29.9 mph 0.03 in Rain Light Rain
5:00 PM 57.0 °F - 55.0 °F 93% 29.53 in 2.5 mi SSW 20.7 mph 32.2 mph 0.01 in Rain , Thunderstorm Light Rain
5:07 PM 57.0 °F - 55.0 °F 93% 29.53 in 4.0 mi SSW 18.4 mph 33.4 mph 0.07 in Rain , Thunderstorm Rain
5:28 PM 57.9 °F - 55.0 °F 90% 29.50 in 4.0 mi SSW 19.6 mph 35.7 mph 0.10 in Rain Light Rain
5:39 PM 57.0 °F - 55.0 °F 93% 29.49 in 1.8 mi SSW 17.3 mph 35.7 mph 0.10 in   Overcast
5:52 PM 57.0 °F - 55.0 °F 93% 29.48 in 1.5 mi SSW 19.6 mph 32.2 mph 0.10 in   Overcast
6:33 PM 57.9 °F - 55.0 °F 90% 29.44 in 2.5 mi SSW 18.4 mph 38.0 mph 0.23 in Rain Rain
6:41 PM 57.9 °F - 55.0 °F 90% 29.43 in 7.0 mi SSW 18.4 mph 28.8 mph 0.24 in Rain Light Rain
6:52 PM 57.9 °F - 55.0 °F 90% 29.42 in 10.0 mi SSW 27.6 mph 41.4 mph 0.24 in Rain Light Rain
7:07 PM 57.9 °F - 55.9 °F 93% 29.40 in 2.5 mi SSW 20.7 mph 35.7 mph 0.00 in   Overcast
7:28 PM 57.9 °F - 55.0 °F 90% 29.37 in 3.0 mi SSW 16.1 mph 38.0 mph 0.12 in Rain Light Rain
7:52 PM 59.0 °F - 55.9 °F 90% 29.35 in 7.0 mi SSW 24.2 mph 39.1 mph 0.18 in Rain Light Rain
8:01 PM 59.0 °F - 55.9 °F 90% 29.34 in 1.8 mi SSW 20.7 mph 43.7 mph 0.14 in Rain Heavy Rain
8:21 PM 57.0 °F - 54.0 °F 89% 29.40 in 3.0 mi WSW 19.6 mph 32.2 mph 0.36 in Rain Rain
8:28 PM 57.0 °F - 54.0 °F 89% 29.40 in 4.0 mi SW 20.7 mph 29.9 mph 0.39 in Rain Rain
8:36 PM 57.0 °F - 54.0 °F 89% 29.39 in 9.0 mi SW 16.1 mph 28.8 mph 0.39 in Rain Light Rain
8:52 PM 55.9 °F - 53.1 °F 90% 29.40 in 10.0 mi SSW 13.8 mph 21.9 mph 0.40 in Rain Light Rain
9:05 PM 55.9 °F - 53.1 °F 90% 29.40 in 10.0 mi SSW 8.1 mph 19.6 mph 0.00 in   Overcast
9:52 PM 55.0 °F - 52.0 °F 89% 29.40 in 10.0 mi SSW 9.2 mph - 0.01 in Rain Light Rain
10:52 PM 53.1 °F - 51.1 °F 93% 29.34 in 10.0 mi SSE 9.2 mph - 0.02 in Rain Light Rain
11:27 PM 52.0 °F - 48.9 °F 89% 29.34 in 10.0 mi South 6.9 mph - 0.01 in   Overcast
11:35 PM 51.1 °F - 48.9 °F 92% 29.35 in 10.0 mi South 9.2 mph - 0.01 in   Overcast
11:52 PM 51.1 °F - 48.0 °F 89% 29.35 in 10.0 mi SSW 9.2 mph - 0.01 in   Overcast